"Sample Date","Sample Time","Sensor Name","Sample Value","Units","Flow Rate","Sample Interval","Sample Volume","Laser Status","Number Channels","Micron Size 0","Counts/Channel 0","Micron Size 1","Counts/Channel 1","Micron Size 2","Counts/Channel 2","Micron Size 3","Counts/Channel 3","Micron Size 4","Counts/Channel 4","Micron Size 5","Counts/Channel 5","Micron Size 6","Counts/Channel 6","Micron Size 7","Counts/Channel 7","Micron Size 8","Counts/Channel 8","Micron Size 9","Counts/Channel 9","Micron Size 10","Counts/Channel 10","Micron Size 11","Counts/Channel 11","Micron Size 12","Counts/Channel 12","Micron Size 13","Counts/Channel 13","Micron Size 14","Counts/Channel 14","Micron Size 15","Counts/Channel 15","Micron Size 16","Counts/Channel 16","Micron Size 17","Counts/Channel 17","Micron Size 18","Counts/Channel 18","Micron Size 19","Counts/Channel 19","Micron Size 20","Counts/Channel 20","Micron Size 21","Counts/Channel 21","Micron Size 22","Counts/Channel 22","Micron Size 23","Counts/Channel 23","Micron Size 24","Counts/Channel 24","Micron Size 25","Counts/Channel 25","Micron Size 26","Counts/Channel 26","Micron Size 27","Counts/Channel 27","Micron Size 28","Counts/Channel 28","Micron Size 29","Counts/Channel 29","Micron Size 30","Counts/Channel 30","Micron Size 31","Counts/Channel 31"
"07/09/06","19:00:05","AMMA06",21259.000,"cc",28307.578,6.00,2830.758,1,6,0.100,12491.000,0.200,7711.000,0.300,915.000,0.500,85.000,1.000,57.000,5.000,0
"07/09/06","19:00:11","AMMA06",21590.000,"cc",28343.150,6.00,2834.315,1,6,0.100,12668.000,0.200,7847.000,0.300,916.000,0.500,114.000,1.000,45.000,5.000,0
"07/09/06","19:00:17","AMMA06",21416.000,"cc",28342.965,6.00,2834.297,1,6,0.100,12696.000,0.200,7676.000,0.300,888.000,0.500,110.000,1.000,46.000,5.000,0
"07/09/06","19:00:23","AMMA06",21303.000,"cc",28318.613,6.00,2831.862,1,6,0.100,12488.000,0.200,7709.000,0.300,926.000,0.500,110.000,1.000,70.000,5.000,0
"07/09/06","19:00:29","AMMA06",22850.000,"cc",28335.311,6.00,2833.531,1,6,0.100,13203.000,0.200,8148.000,0.300,1121.000,0.500,267.000,1.000,111.000,5.000,0
"07/09/06","19:00:35","AMMA06",21888.000,"cc",28333.779,6.00,2833.378,1,6,0.100,12848.000,0.200,7772.000,0.300,1018.000,0.500,164.000,1.000,86.000,5.000,0
"07/09/06","19:00:41","AMMA06",21630.000,"cc",28287.377,6.00,2828.738,1,6,0.100,12665.000,0.200,7861.000,0.300,906.000,0.500,122.000,1.000,76.000,5.000,0
"07/09/06","19:00:47","AMMA06",21264.000,"cc",28350.717,6.00,2835.072,1,6,0.100,12555.000,0.200,7635.000,0.300,905.000,0.500,111.000,1.000,58.000,5.000,0
"07/09/06","19:00:53","AMMA06",21285.000,"cc",28277.713,6.00,2827.772,1,6,0.100,12486.000,0.200,7775.000,0.300,857.000,0.500,115.000,1.000,52.000,5.000,0
"07/09/06","19:00:59","AMMA06",21220.000,"cc",28301.762,6.00,2830.176,1,6,0.100,12438.000,0.200,7715.000,0.300,912.000,0.500,108.000,1.000,47.000,5.000,0
"07/09/06","19:01:05","AMMA06",21195.000,"cc",28304.313,6.00,2830.431,1,6,0.100,12460.000,0.200,7719.000,0.300,846.000,0.500,119.000,1.000,51.000,5.000,0
"07/09/06","19:01:11","AMMA06",20999.000,"cc",28324.482,6.00,2832.449,1,6,0.100,12385.000,0.200,7612.000,0.300,852.000,0.500,106.000,1.000,44.000,5.000,0
"07/09/06","19:01:17","AMMA06",20839.000,"cc",28321.238,6.00,2832.124,1,6,0.100,12182.000,0.200,7621.000,0.300,862.000,0.500,100.000,1.000,74.000,5.000,0
"07/09/06","19:01:23","AMMA06",21045.000,"cc",28299.772,6.00,2829.977,1,6,0.100,12342.000,0.200,7716.000,0.300,811.000,0.500,110.000,1.000,66.000,5.000,0
"07/09/06","19:01:29","AMMA06",21199.000,"cc",28299.674,6.00,2829.968,1,6,0.100,12576.000,0.200,7637.000,0.300,841.000,0.500,103.000,1.000,42.000,5.000,0
"07/09/06","19:01:35","AMMA06",20890.000,"cc",28312.920,6.00,2831.292,1,6,0.100,12302.000,0.200,7598.000,0.300,833.000,0.500,97.000,1.000,60.000,5.000,0
"07/09/06","19:01:41","AMMA06",20984.000,"cc",28328.172,6.00,2832.817,1,6,0.100,12351.000,0.200,7649.000,0.300,858.000,0.500,80.000,1.000,46.000,5.000,0
"07/09/06","19:01:47","AMMA06",21208.000,"cc",28346.318,6.00,2834.632,1,6,0.100,12611.000,0.200,7557.000,0.300,858.000,0.500,129.000,1.000,53.000,5.000,0
"07/09/06","19:01:53","AMMA06",21185.000,"cc",28351.332,6.00,2835.133,1,6,0.100,12714.000,0.200,7459.000,0.300,825.000,0.500,136.000,1.000,51.000,5.000,0
"07/09/06","19:01:59","AMMA06",20724.000,"cc",28298.565,6.00,2829.857,1,6,0.100,12266.000,0.200,7542.000,0.300,798.000,0.500,78.000,1.000,40.000,5.000,0
"07/09/06","19:02:05","AMMA06",21624.000,"cc",28292.225,6.00,2829.223,1,6,0.100,12656.000,0.200,7682.000,0.300,999.000,0.500,194.000,1.000,93.000,5.000,0
"07/09/06","19:02:11","AMMA06",21558.000,"cc",28354.996,6.00,2835.500,1,6,0.100,12611.000,0.200,7725.000,0.300,967.000,0.500,167.000,1.000,88.000,5.000,0
"07/09/06","19:02:17","AMMA06",21036.000,"cc",28356.084,6.00,2835.609,1,6,0.100,12501.000,0.200,7477.000,0.300,880.000,0.500,116.000,1.000,62.000,5.000,0
"07/09/06","19:02:23","AMMA06",20871.000,"cc",28298.326,6.00,2829.833,1,6,0.100,12293.000,0.200,7578.000,0.300,840.000,0.500,112.000,1.000,48.000,5.000,0
"07/09/06","19:02:29","AMMA06",21030.000,"cc",28307.813,6.00,2830.782,1,6,0.100,12341.000,0.200,7657.000,0.300,861.000,0.500,118.000,1.000,53.000,5.000,0
"07/09/06","19:02:35","AMMA06",20858.000,"cc",28321.766,6.00,2832.177,1,6,0.100,12238.000,0.200,7591.000,0.300,863.000,0.500,110.000,1.000,56.000,5.000,0
"07/09/06","19:02:41","AMMA06",21278.000,"cc",28295.709,6.00,2829.571,1,6,0.100,12724.000,0.200,7551.000,0.300,848.000,0.500,108.000,1.000,47.000,5.000,0
"07/09/06","19:02:47","AMMA06",21327.000,"cc",28332.168,6.00,2833.217,1,6,0.100,12768.000,0.200,7539.000,0.300,858.000,0.500,105.000,1.000,57.000,5.000,0
"07/09/06","19:02:53","AMMA06",21158.000,"cc",28300.729,6.00,2830.073,1,6,0.100,12522.000,0.200,7512.000,0.300,914.000,0.500,141.000,1.000,69.000,5.000,0
"07/09/06","19:02:59","AMMA06",21325.000,"cc",28293.094,6.00,2829.310,1,6,0.100,12729.000,0.200,7519.000,0.300,880.000,0.500,131.000,1.000,66.000,5.000,0
"07/09/06","19:03:05","AMMA06",21129.000,"cc",28292.059,6.00,2829.206,1,6,0.100,12668.000,0.200,7439.000,0.300,889.000,0.500,91.000,1.000,42.000,5.000,0
"07/09/06","19:03:11","AMMA06",21063.000,"cc",28352.637,6.00,2835.264,1,6,0.100,12513.000,0.200,7545.000,0.300,857.000,0.500,95.000,1.000,53.000,5.000,0
"07/09/06","19:03:17","AMMA06",21053.000,"cc",28319.518,6.00,2831.952,1,6,0.100,12647.000,0.200,7428.000,0.300,821.000,0.500,100.000,1.000,57.000,5.000,0
"07/09/06","19:03:23","AMMA06",20714.000,"cc",28321.557,6.00,2832.156,1,6,0.100,12252.000,0.200,7468.000,0.300,835.000,0.500,105.000,1.000,54.000,5.000,0
"07/09/06","19:03:29","AMMA06",21103.000,"cc",28301.924,6.00,2830.193,1,6,0.100,12551.000,0.200,7566.000,0.300,825.000,0.500,110.000,1.000,51.000,5.000,0
"07/09/06","19:03:35","AMMA06",21293.000,"cc",28309.820,6.00,2830.982,1,6,0.100,12744.000,0.200,7575.000,0.300,845.000,0.500,88.000,1.000,41.000,5.000,0
"07/09/06","19:03:41","AMMA06",21149.000,"cc",28326.209,6.00,2832.621,1,6,0.100,12647.000,0.200,7427.000,0.300,892.000,0.500,120.000,1.000,63.000,5.000,0
"07/09/06","19:03:47","AMMA06",21651.000,"cc",28361.674,6.00,2836.168,1,6,0.100,12914.000,0.200,7652.000,0.300,879.000,0.500,138.000,1.000,68.000,5.000,0
"07/09/06","19:03:53","AMMA06",21396.000,"cc",28292.469,6.00,2829.247,1,6,0.100,12646.000,0.200,7643.000,0.300,907.000,0.500,135.000,1.000,65.000,5.000,0
"07/09/06","19:03:59","AMMA06",21297.000,"cc",28297.137,6.00,2829.714,1,6,0.100,12747.000,0.200,7578.000,0.300,806.000,0.500,114.000,1.000,52.000,5.000,0
"07/09/06","19:04:05","AMMA06",21370.000,"cc",28292.066,6.00,2829.207,1,6,0.100,12730.000,0.200,7603.000,0.300,885.000,0.500,97.000,1.000,55.000,5.000,0
"07/09/06","19:04:11","AMMA06",21671.000,"cc",28344.479,6.00,2834.448,1,6,0.100,12974.000,0.200,7733.000,0.300,829.000,0.500,84.000,1.000,51.000,5.000,0
"07/09/06","19:04:17","AMMA06",21409.000,"cc",28290.465,6.00,2829.047,1,6,0.100,12749.000,0.200,7698.000,0.300,819.000,0.500,83.000,1.000,60.000,5.000,0
"07/09/06","19:04:23","AMMA06",21391.000,"cc",28324.889,6.00,2832.489,1,6,0.100,12725.000,0.200,7581.000,0.300,898.000,0.500,128.000,1.000,59.000,5.000,0
"07/09/06","19:04:29","AMMA06",21700.000,"cc",28322.031,6.00,2832.203,1,6,0.100,12937.000,0.200,7699.000,0.300,862.000,0.500,133.000,1.000,69.000,5.000,0
"07/09/06","19:04:35","AMMA06",21679.000,"cc",28319.815,6.00,2831.982,1,6,0.100,12996.000,0.200,7723.000,0.300,822.000,0.500,89.000,1.000,49.000,5.000,0
"07/09/06","19:04:41","AMMA06",21508.000,"cc",28332.928,6.00,2833.293,1,6,0.100,12918.000,0.200,7600.000,0.300,831.000,0.500,105.000,1.000,54.000,5.000,0
"07/09/06","19:04:47","AMMA06",21318.000,"cc",28312.324,6.00,2831.233,1,6,0.100,12753.000,0.200,7601.000,0.300,844.000,0.500,79.000,1.000,41.000,5.000,0
"07/09/06","19:04:53","AMMA06",21298.000,"cc",28330.252,6.00,2833.025,1,6,0.100,12889.000,0.200,7482.000,0.300,812.000,0.500,73.000,1.000,42.000,5.000,0
"07/09/06","19:04:59","AMMA06",24521.000,"cc",28286.182,6.00,2828.618,1,6,0.100,14424.000,0.200,8241.000,0.300,1344.000,0.500,402.000,1.000,110.000,5.000,0
"07/09/06","19:05:05","AMMA06",25738.000,"cc",28326.266,6.00,2832.627,1,6,0.100,14885.000,0.200,8589.000,0.300,1557.000,0.500,515.000,1.000,192.000,5.000,0
"07/09/06","19:05:11","AMMA06",23216.000,"cc",28319.393,6.00,2831.940,1,6,0.100,13636.000,0.200,8030.000,0.300,1182.000,0.500,268.000,1.000,100.000,5.000,0
"07/09/06","19:05:17","AMMA06",21588.000,"cc",28358.588,6.00,2835.859,1,6,0.100,12895.000,0.200,7633.000,0.300,870.000,0.500,113.000,1.000,77.000,5.000,0
"07/09/06","19:05:23","AMMA06",21864.000,"cc",28265.611,6.00,2826.561,1,6,0.100,13030.000,0.200,7779.000,0.300,866.000,0.500,125.000,1.000,64.000,5.000,0
"07/09/06","19:05:29","AMMA06",21790.000,"cc",28298.961,6.00,2829.896,1,6,0.100,12991.000,0.200,7754.000,0.300,881.000,0.500,104.000,1.000,60.000,5.000,0
"07/09/06","19:05:35","AMMA06",21680.000,"cc",28353.414,6.00,2835.342,1,6,0.100,12815.000,0.200,7830.000,0.300,872.000,0.500,99.000,1.000,64.000,5.000,0
"07/09/06","19:05:41","AMMA06",21493.000,"cc",28329.174,6.00,2832.918,1,6,0.100,12910.000,0.200,7578.000,0.300,874.000,0.500,92.000,1.000,39.000,5.000,0
"07/09/06","19:05:47","AMMA06",21442.000,"cc",28310.736,6.00,2831.074,1,6,0.100,12741.000,0.200,7686.000,0.300,860.000,0.500,99.000,1.000,56.000,5.000,0
"07/09/06","19:05:53","AMMA06",21780.000,"cc",28339.850,6.00,2833.985,1,6,0.100,12913.000,0.200,7803.000,0.300,898.000,0.500,96.000,1.000,70.000,5.000,0
"07/09/06","19:05:59","AMMA06",21920.000,"cc",28282.719,6.00,2828.272,1,6,0.100,13043.000,0.200,7697.000,0.300,944.000,0.500,160.000,1.000,76.000,5.000,0
"07/09/06","19:06:05","AMMA06",22826.000,"cc",28303.676,6.00,2830.368,1,6,0.100,13233.000,0.200,8158.000,0.300,1087.000,0.500,238.000,1.000,110.000,5.000,0
"07/09/06","19:06:11","AMMA06",22317.000,"cc",28326.967,6.00,2832.697,1,6,0.100,13041.000,0.200,8026.000,0.300,983.000,0.500,189.000,1.000,78.000,5.000,0
"07/09/06","19:06:17","AMMA06",22961.000,"cc",28341.080,6.00,2834.108,1,6,0.100,13630.000,0.200,7997.000,0.300,1010.000,0.500,240.000,1.000,84.000,5.000,0
"07/09/06","19:06:23","AMMA06",22166.000,"cc",28310.162,6.00,2831.016,1,6,0.100,13035.000,0.200,8042.000,0.300,908.000,0.500,136.000,1.000,45.000,5.000,0
"07/09/06","19:06:29","AMMA06",21882.000,"cc",28286.563,6.00,2828.657,1,6,0.100,12874.000,0.200,7893.000,0.300,929.000,0.500,124.000,1.000,62.000,5.000,0
"07/09/06","19:06:35","AMMA06",21811.000,"cc",28314.568,6.00,2831.457,1,6,0.100,13076.000,0.200,7698.000,0.300,869.000,0.500,117.000,1.000,51.000,5.000,0
"07/09/06","19:06:41","AMMA06",21510.000,"cc",28329.955,6.00,2832.996,1,6,0.100,12689.000,0.200,7806.000,0.300,855.000,0.500,116.000,1.000,44.000,5.000,0
"07/09/06","19:06:47","AMMA06",21533.000,"cc",28304.498,6.00,2830.450,1,6,0.100,12735.000,0.200,7712.000,0.300,935.000,0.500,100.000,1.000,51.000,5.000,0
"07/09/06","19:06:53","AMMA06",21406.000,"cc",28324.609,6.00,2832.461,1,6,0.100,12453.000,0.200,7918.000,0.300,895.000,0.500,92.000,1.000,48.000,5.000,0
"07/09/06","19:06:59","AMMA06",21208.000,"cc",28309.975,6.00,2830.998,1,6,0.100,12492.000,0.200,7696.000,0.300,899.000,0.500,82.000,1.000,39.000,5.000,0
"07/09/06","19:07:05","AMMA06",21212.000,"cc",28363.824,6.00,2836.383,1,6,0.100,12554.000,0.200,7682.000,0.300,836.000,0.500,97.000,1.000,43.000,5.000,0
"07/09/06","19:07:11","AMMA06",21521.000,"cc",28303.004,6.00,2830.301,1,6,0.100,12591.000,0.200,7919.000,0.300,865.000,0.500,104.000,1.000,42.000,5.000,0
"07/09/06","19:07:17","AMMA06",21686.000,"cc",28325.994,6.00,2832.600,1,6,0.100,12794.000,0.200,7869.000,0.300,871.000,0.500,102.000,1.000,50.000,5.000,0
"07/09/06","19:07:23","AMMA06",21531.000,"cc",28349.732,6.00,2834.973,1,6,0.100,12635.000,0.200,7949.000,0.300,818.000,0.500,81.000,1.000,48.000,5.000,0
"07/09/06","19:07:29","AMMA06",21686.000,"cc",28298.973,6.00,2829.898,1,6,0.100,12701.000,0.200,7930.000,0.300,909.000,0.500,98.000,1.000,48.000,5.000,0
"07/09/06","19:07:35","AMMA06",21104.000,"cc",28302.938,6.00,2830.294,1,6,0.100,12519.000,0.200,7647.000,0.300,791.000,0.500,88.000,1.000,59.000,5.000,0
"07/09/06","19:07:41","AMMA06",21231.000,"cc",28307.133,6.00,2830.713,1,6,0.100,12400.000,0.200,7844.000,0.300,877.000,0.500,70.000,1.000,40.000,5.000,0
"07/09/06","19:07:47","AMMA06",21278.000,"cc",28285.867,6.00,2828.587,1,6,0.100,12480.000,0.200,7834.000,0.300,827.000,0.500,95.000,1.000,42.000,5.000,0
"07/09/06","19:07:53","AMMA06",21366.000,"cc",28284.209,6.00,2828.421,1,6,0.100,12433.000,0.200,7941.000,0.300,872.000,0.500,82.000,1.000,38.000,5.000,0
"07/09/06","19:07:59","AMMA06",21663.000,"cc",28357.293,6.00,2835.730,1,6,0.100,12692.000,0.200,7977.000,0.300,863.000,0.500,83.000,1.000,48.000,5.000,0
"07/09/06","19:08:05","AMMA06",21481.000,"cc",28348.803,6.00,2834.880,1,6,0.100,12506.000,0.200,7924.000,0.300,914.000,0.500,81.000,1.000,56.000,5.000,0
"07/09/06","19:08:11","AMMA06",21801.000,"cc",28309.697,6.00,2830.970,1,6,0.100,12676.000,0.200,8013.000,0.300,952.000,0.500,114.000,1.000,46.000,5.000,0
"07/09/06","19:08:17","AMMA06",21617.000,"cc",28315.180,6.00,2831.518,1,6,0.100,12651.000,0.200,7906.000,0.300,905.000,0.500,99.000,1.000,56.000,5.000,0
"07/09/06","19:08:23","AMMA06",21901.000,"cc",28325.350,6.00,2832.535,1,6,0.100,12862.000,0.200,8010.000,0.300,874.000,0.500,103.000,1.000,52.000,5.000,0
"07/09/06","19:08:29","AMMA06",21953.000,"cc",28310.609,6.00,2831.061,1,6,0.100,13113.000,0.200,7817.000,0.300,869.000,0.500,96.000,1.000,58.000,5.000,0
"07/09/06","19:08:35","AMMA06",21822.000,"cc",28278.289,6.00,2827.829,1,6,0.100,12797.000,0.200,7948.000,0.300,925.000,0.500,100.000,1.000,52.000,5.000,0
"07/09/06","19:08:41","AMMA06",22287.000,"cc",28344.736,6.00,2834.474,1,6,0.100,13214.000,0.200,8072.000,0.300,834.000,0.500,116.000,1.000,51.000,5.000,0
"07/09/06","19:08:47","AMMA06",22182.000,"cc",28302.447,6.00,2830.245,1,6,0.100,13015.000,0.200,8191.000,0.300,853.000,0.500,79.000,1.000,44.000,5.000,0
"07/09/06","19:08:53","AMMA06",22122.000,"cc",28287.422,6.00,2828.742,1,6,0.100,13077.000,0.200,7933.000,0.300,928.000,0.500,121.000,1.000,63.000,5.000,0
"07/09/06","19:08:59","AMMA06",22897.000,"cc",28290.576,6.00,2829.058,1,6,0.100,13371.000,0.200,8278.000,0.300,1027.000,0.500,161.000,1.000,60.000,5.000,0
"07/09/06","19:09:05","AMMA06",22909.000,"cc",28408.531,6.00,2840.853,1,6,0.100,13327.000,0.200,8292.000,0.300,1050.000,0.500,177.000,1.000,63.000,5.000,0
"07/09/06","19:09:11","AMMA06",21780.000,"cc",28306.553,6.00,2830.656,1,6,0.100,12969.000,0.200,7728.000,0.300,915.000,0.500,112.000,1.000,56.000,5.000,0
"07/09/06","19:09:17","AMMA06",21380.000,"cc",28332.875,6.00,2833.288,1,6,0.100,12765.000,0.200,7635.000,0.300,851.000,0.500,84.000,1.000,45.000,5.000,0
"07/09/06","19:09:23","AMMA06",21175.000,"cc",28293.697,6.00,2829.370,1,6,0.100,12597.000,0.200,7578.000,0.300,848.000,0.500,109.000,1.000,43.000,5.000,0
"07/09/06","19:09:29","AMMA06",21298.000,"cc",28305.287,6.00,2830.529,1,6,0.100,12526.000,0.200,7777.000,0.300,847.000,0.500,89.000,1.000,59.000,5.000,0
"07/09/06","19:09:35","AMMA06",21202.000,"cc",28291.342,6.00,2829.134,1,6,0.100,12416.000,0.200,7790.000,0.300,863.000,0.500,82.000,1.000,51.000,5.000,0
"07/09/06","19:09:41","AMMA06",21167.000,"cc",28309.223,6.00,2830.922,1,6,0.100,12388.000,0.200,7791.000,0.300,874.000,0.500,81.000,1.000,33.000,5.000,0
"07/09/06","19:09:47","AMMA06",21219.000,"cc",28346.254,6.00,2834.626,1,6,0.100,12577.000,0.200,7687.000,0.300,835.000,0.500,79.000,1.000,41.000,5.000,0
"07/09/06","19:09:53","AMMA06",21464.000,"cc",28279.285,6.00,2827.929,1,6,0.100,12539.000,0.200,7939.000,0.300,842.000,0.500,96.000,1.000,48.000,5.000,0
"07/09/06","19:09:59","AMMA06",21284.000,"cc",28272.527,6.00,2827.253,1,6,0.100,12604.000,0.200,7710.000,0.300,846.000,0.500,89.000,1.000,35.000,5.000,0
"07/09/06","19:10:05","AMMA06",21699.000,"cc",28317.207,6.00,2831.721,1,6,0.100,12892.000,0.200,7801.000,0.300,882.000,0.500,81.000,1.000,43.000,5.000,0
"07/09/06","19:10:11","AMMA06",21888.000,"cc",28319.234,6.00,2831.924,1,6,0.100,12917.000,0.200,7978.000,0.300,840.000,0.500,113.000,1.000,40.000,5.000,0
"07/09/06","19:10:17","AMMA06",21450.000,"cc",28313.422,6.00,2831.342,1,6,0.100,12827.000,0.200,7620.000,0.300,865.000,0.500,83.000,1.000,55.000,5.000,0
"07/09/06","19:10:23","AMMA06",21593.000,"cc",28374.346,6.00,2837.435,1,6,0.100,12758.000,0.200,7864.000,0.300,846.000,0.500,94.000,1.000,31.000,5.000,0
"07/09/06","19:10:29","AMMA06",21264.000,"cc",28371.846,6.00,2837.185,1,6,0.100,12658.000,0.200,7683.000,0.300,780.000,0.500,90.000,1.000,53.000,5.000,0
"07/09/06","19:10:35","AMMA06",21407.000,"cc",28296.236,6.00,2829.624,1,6,0.100,12672.000,0.200,7763.000,0.300,852.000,0.500,76.000,1.000,44.000,5.000,0
"07/09/06","19:10:41","AMMA06",21170.000,"cc",28274.900,6.00,2827.490,1,6,0.100,12685.000,0.200,7500.000,0.300,839.000,0.500,102.000,1.000,44.000,5.000,0
"07/09/06","19:10:47","AMMA06",21320.000,"cc",28331.875,6.00,2833.188,1,6,0.100,12664.000,0.200,7685.000,0.300,855.000,0.500,80.000,1.000,36.000,5.000,0
"07/09/06","19:10:53","AMMA06",21316.000,"cc",28296.006,6.00,2829.601,1,6,0.100,12643.000,0.200,7678.000,0.300,844.000,0.500,92.000,1.000,59.000,5.000,0
"07/09/06","19:10:59","AMMA06",21196.000,"cc",28368.992,6.00,2836.899,1,6,0.100,12681.000,0.200,7537.000,0.300,852.000,0.500,89.000,1.000,37.000,5.000,0
"07/09/06","19:11:05","AMMA06",21357.000,"cc",28271.895,6.00,2827.190,1,6,0.100,12749.000,0.200,7563.000,0.300,901.000,0.500,82.000,1.000,62.000,5.000,0
"07/09/06","19:11:11","AMMA06",20851.000,"cc",28332.602,6.00,2833.260,1,6,0.100,12344.000,0.200,7545.000,0.300,818.000,0.500,97.000,1.000,47.000,5.000,0
"07/09/06","19:11:17","AMMA06",21057.000,"cc",28314.715,6.00,2831.472,1,6,0.100,12482.000,0.200,7608.000,0.300,832.000,0.500,83.000,1.000,52.000,5.000,0
"07/09/06","19:11:23","AMMA06",21199.000,"cc",28307.449,6.00,2830.745,1,6,0.100,12582.000,0.200,7662.000,0.300,811.000,0.500,83.000,1.000,61.000,5.000,0
"07/09/06","19:11:29","AMMA06",21248.000,"cc",28322.699,6.00,2832.270,1,6,0.100,12563.000,0.200,7694.000,0.300,867.000,0.500,83.000,1.000,41.000,5.000,0
"07/09/06","19:11:35","AMMA06",21563.000,"cc",28316.363,6.00,2831.637,1,6,0.100,12752.000,0.200,7760.000,0.300,901.000,0.500,89.000,1.000,61.000,5.000,0
"07/09/06","19:11:41","AMMA06",21337.000,"cc",28303.436,6.00,2830.344,1,6,0.100,12736.000,0.200,7584.000,0.300,864.000,0.500,102.000,1.000,51.000,5.000,0
"07/09/06","19:11:47","AMMA06",21130.000,"cc",28320.762,6.00,2832.076,1,6,0.100,12565.000,0.200,7609.000,0.300,818.000,0.500,86.000,1.000,52.000,5.000,0
"07/09/06","19:11:53","AMMA06",21289.000,"cc",28367.467,6.00,2836.747,1,6,0.100,12623.000,0.200,7668.000,0.300,857.000,0.500,91.000,1.000,50.000,5.000,0
"07/09/06","19:11:59","AMMA06",21592.000,"cc",28334.197,6.00,2833.420,1,6,0.100,12895.000,0.200,7749.000,0.300,827.000,0.500,74.000,1.000,47.000,5.000,0
"07/09/06","19:12:05","AMMA06",21528.000,"cc",28291.410,6.00,2829.141,1,6,0.100,12854.000,0.200,7702.000,0.300,849.000,0.500,75.000,1.000,48.000,5.000,0
"07/09/06","19:12:11","AMMA06",23567.000,"cc",28330.639,6.00,2833.064,1,6,0.100,13750.000,0.200,8192.000,0.300,1232.000,0.500,294.000,1.000,99.000,5.000,0
"07/09/06","19:12:17","AMMA06",22142.000,"cc",28327.090,6.00,2832.709,1,6,0.100,13004.000,0.200,7916.000,0.300,984.000,0.500,161.000,1.000,77.000,5.000,0
"07/09/06","19:12:23","AMMA06",21209.000,"cc",28294.713,6.00,2829.471,1,6,0.100,12700.000,0.200,7485.000,0.300,827.000,0.500,122.000,1.000,75.000,5.000,0
"07/09/06","19:12:29","AMMA06",21302.000,"cc",28307.900,6.00,2830.790,1,6,0.100,12662.000,0.200,7610.000,0.300,879.000,0.500,105.000,1.000,46.000,5.000,0
"07/09/06","19:12:35","AMMA06",21778.000,"cc",28300.326,6.00,2830.033,1,6,0.100,13033.000,0.200,7745.000,0.300,861.000,0.500,86.000,1.000,53.000,5.000,0
"07/09/06","19:12:41","AMMA06",23465.000,"cc",28360.508,6.00,2836.051,1,6,0.100,14346.000,0.200,8088.000,0.300,900.000,0.500,86.000,1.000,45.000,5.000,0
"07/09/06","19:12:47","AMMA06",23555.000,"cc",28307.813,6.00,2830.782,1,6,0.100,14232.000,0.200,8286.000,0.300,884.000,0.500,105.000,1.000,48.000,5.000,0
"07/09/06","19:12:53","AMMA06",23340.000,"cc",28295.018,6.00,2829.502,1,6,0.100,14343.000,0.200,8066.000,0.300,811.000,0.500,80.000,1.000,40.000,5.000,0
"07/09/06","19:12:59","AMMA06",23660.000,"cc",28293.012,6.00,2829.301,1,6,0.100,14349.000,0.200,8223.000,0.300,919.000,0.500,104.000,1.000,65.000,5.000,0
"07/09/06","19:13:05","AMMA06",23450.000,"cc",28346.156,6.00,2834.616,1,6,0.100,14343.000,0.200,8077.000,0.300,897.000,0.500,95.000,1.000,38.000,5.000,0
"07/09/06","19:13:11","AMMA06",23901.000,"cc",28318.963,6.00,2831.897,1,6,0.100,14501.000,0.200,8256.000,0.300,927.000,0.500,161.000,1.000,56.000,5.000,0
"07/09/06","19:13:17","AMMA06",24643.000,"cc",28297.770,6.00,2829.777,1,6,0.100,14847.000,0.200,8315.000,0.300,1142.000,0.500,247.000,1.000,92.000,5.000,0
"07/09/06","19:13:23","AMMA06",23839.000,"cc",28316.568,6.00,2831.657,1,6,0.100,14467.000,0.200,8204.000,0.300,925.000,0.500,166.000,1.000,77.000,5.000,0
"07/09/06","19:13:29","AMMA06",23800.000,"cc",28306.744,6.00,2830.675,1,6,0.100,14490.000,0.200,8212.000,0.300,921.000,0.500,119.000,1.000,58.000,5.000,0
"07/09/06","19:13:35","AMMA06",23804.000,"cc",28327.359,6.00,2832.736,1,6,0.100,14325.000,0.200,8271.000,0.300,977.000,0.500,158.000,1.000,73.000,5.000,0
"07/09/06","19:13:41","AMMA06",23202.000,"cc",28352.744,6.00,2835.275,1,6,0.100,14180.000,0.200,7993.000,0.300,881.000,0.500,97.000,1.000,51.000,5.000,0
"07/09/06","19:13:47","AMMA06",24398.000,"cc",28290.340,6.00,2829.034,1,6,0.100,14637.000,0.200,8268.000,0.300,1134.000,0.500,255.000,1.000,104.000,5.000,0
"07/09/06","19:13:53","AMMA06",24105.000,"cc",28325.395,6.00,2832.540,1,6,0.100,14554.000,0.200,8281.000,0.300,991.000,0.500,198.000,1.000,81.000,5.000,0
"07/09/06","19:13:59","AMMA06",23845.000,"cc",28292.252,6.00,2829.225,1,6,0.100,14465.000,0.200,8152.000,0.300,984.000,0.500,168.000,1.000,76.000,5.000,0
"07/09/06","19:14:05","AMMA06",23961.000,"cc",28321.336,6.00,2832.134,1,6,0.100,14393.000,0.200,8310.000,0.300,1007.000,0.500,155.000,1.000,96.000,5.000,0
"07/09/06","19:14:11","AMMA06",24202.000,"cc",28348.994,6.00,2834.900,1,6,0.100,14872.000,0.200,8219.000,0.300,940.000,0.500,112.000,1.000,59.000,5.000,0
"07/09/06","19:14:17","AMMA06",23768.000,"cc",28329.496,6.00,2832.950,1,6,0.100,14502.000,0.200,8202.000,0.300,895.000,0.500,114.000,1.000,55.000,5.000,0
"07/09/06","19:14:23","AMMA06",23569.000,"cc",28268.055,6.00,2826.806,1,6,0.100,14423.000,0.200,8158.000,0.300,839.000,0.500,104.000,1.000,45.000,5.000,0
"07/09/06","19:14:29","AMMA06",23728.000,"cc",28335.102,6.00,2833.510,1,6,0.100,14472.000,0.200,8217.000,0.300,880.000,0.500,100.000,1.000,59.000,5.000,0
"07/09/06","19:14:35","AMMA06",25126.000,"cc",28292.908,6.00,2829.291,1,6,0.100,15220.000,0.200,8538.000,0.300,1085.000,0.500,202.000,1.000,81.000,5.000,0